TimeEST,TemperatureF,Dew PointF,Humidity,Sea Level PressureIn,VisibilityMPH,Wind Direction,Wind SpeedMPH,Gust SpeedMPH,PrecipitationIn,Events,Conditions,WindDirDegrees,DateUTC
12:53 AM,30.0,27.0,88,30.43,8.0,Calm,Calm,-,N/A,,Clear,0,2013-01-08 05:53:00
1:53 AM,28.9,27.0,92,30.43,9.0,NNE,3.5,-,N/A,,Clear,30,2013-01-08 06:53:00
2:27 AM,28.4,26.6,93,30.43,1.8,Calm,Calm,-,N/A,,Clear,0,2013-01-08 07:27:00
2:38 AM,28.4,26.6,93,30.43,4.0,Calm,Calm,-,N/A,,Clear,0,2013-01-08 07:38:00
2:53 AM,28.9,27.0,92,30.43,4.0,Calm,Calm,-,N/A,,Clear,0,2013-01-08 07:53:00
3:05 AM,28.4,26.6,93,30.43,2.0,Calm,Calm,-,N/A,,Clear,0,2013-01-08 08:05:00
3:14 AM,28.4,26.6,93,30.43,7.0,Calm,Calm,-,N/A,,Clear,0,2013-01-08 08:14:00
3:53 AM,28.9,28.0,96,30.42,5.0,NE,3.5,-,N/A,,Partly Cloudy,40,2013-01-08 08:53:00
4:30 AM,28.4,26.6,93,30.42,1.8,Calm,Calm,-,N/A,,Partly Cloudy,0,2013-01-08 09:30:00
4:38 AM,28.4,26.6,93,30.42,3.0,Calm,Calm,-,N/A,,Partly Cloudy,0,2013-01-08 09:38:00
4:53 AM,28.9,28.0,96,30.43,7.0,Calm,Calm,-,N/A,,Partly Cloudy,0,2013-01-08 09:53:00
5:53 AM,28.0,26.1,92,30.44,3.0,Calm,Calm,-,N/A,,Partly Cloudy,0,2013-01-08 10:53:00
6:01 AM,28.4,26.6,93,30.43,2.5,Calm,Calm,-,N/A,,Partly Cloudy,0,2013-01-08 11:01:00
6:17 AM,28.4,26.6,93,30.43,6.0,Calm,Calm,-,N/A,,Partly Cloudy,0,2013-01-08 11:17:00
6:53 AM,30.0,28.0,92,30.44,6.0,NE,3.5,-,N/A,,Overcast,40,2013-01-08 11:53:00
7:53 AM,34.0,30.9,89,30.45,7.0,Calm,Calm,-,N/A,,Overcast,0,2013-01-08 12:53:00
8:53 AM,37.9,33.1,83,30.47,10.0,Calm,Calm,-,N/A,,Overcast,0,2013-01-08 13:53:00
9:53 AM,42.1,33.1,70,30.47,10.0,Calm,Calm,-,N/A,,Overcast,0,2013-01-08 14:53:00
10:53 AM,45.0,35.1,68,30.46,10.0,Calm,Calm,-,N/A,,Overcast,0,2013-01-08 15:53:00
11:53 AM,48.0,36.0,63,30.42,10.0,North,4.6,-,N/A,,Overcast,10,2013-01-08 16:53:00
12:53 PM,50.0,35.1,57,30.40,10.0,North,5.8,-,N/A,,Overcast,360,2013-01-08 17:53:00
1:53 PM,54.0,36.0,51,30.40,10.0,NE,4.6,-,N/A,,Mostly Cloudy,40,2013-01-08 18:53:00
2:53 PM,55.0,37.0,51,30.40,10.0,Calm,Calm,-,N/A,,Mostly Cloudy,0,2013-01-08 19:53:00
3:53 PM,55.0,37.9,53,30.39,10.0,Calm,Calm,-,N/A,,Clear,0,2013-01-08 20:53:00
4:53 PM,52.0,39.9,63,30.40,10.0,Calm,Calm,-,N/A,,Mostly Cloudy,0,2013-01-08 21:53:00
5:53 PM,45.0,39.9,82,30.42,10.0,Calm,Calm,-,N/A,,Partly Cloudy,0,2013-01-08 22:53:00
6:53 PM,43.0,39.0,86,30.41,10.0,Calm,Calm,-,N/A,,Mostly Cloudy,0,2013-01-08 23:53:00
7:53 PM,41.0,37.9,89,30.42,10.0,Calm,Calm,-,N/A,,Scattered Clouds,0,2013-01-09 00:53:00
8:53 PM,39.9,37.0,89,30.41,10.0,Calm,Calm,-,N/A,,Clear,0,2013-01-09 01:53:00
9:53 PM,39.0,37.0,93,30.42,9.0,Calm,Calm,-,N/A,,Clear,0,2013-01-09 02:53:00
10:53 PM,39.0,37.0,93,30.41,9.0,Calm,Calm,-,N/A,,Clear,0,2013-01-09 03:53:00
11:53 PM,37.9,35.1,89,30.41,7.0,Calm,Calm,-,N/A,,Clear,0,2013-01-09 04:53:00